[Date Prev][Date Next][Thread Prev][Thread Next] - [Date Index][Thread Index][Author Index]
2 Line ISS Keps 1`2-10
- Subject: [sarex] 2 Line ISS Keps 1`2-10
- From: "Dave Larsen Ph.D." <doc@xxxxxxxxxxx>
- Date: Tue, 10 Dec 2002 04:11:30 -0800
ISS
1 25544U 98067A 02344.19665069 .00031324 00000-0 42727-3 0 4572
2 25544 51.6365 249.3369 0003269 249.3371 206.0196 15.57210101231422
----
Via the sarex mailing list at AMSAT.ORG courtesy of AMSAT-NA.
To unsubscribe, send "unsubscribe sarex" to Majordomo@amsat.org
AMSAT Home